PBO Station Position Time Series. Reference Frame : NAM14
Format Version,1.1.1
4-character ID,P513
Station name,Point_Sal_CS2007
Begin Date, 2007-03-23
End Date, 2023-06-26
Release Date, 2023-06-27
Reference position, 34.9072633157 North Latitude, -120.6501738344 East Longitude, 284.57733 meters elevation,
Date, North (mm), East (mm), Vertical (mm), North Std. Deviation (mm), East Std. Deviation (mm),              Vertical Std. Deviation (mm), Quality,
2007-03-23,0.00, 0.00, 0.00, 1.89, 1.64, 7.30, repro,
2007-03-24,0.44, 0.82, 5.88, 1.89, 1.64, 7.28, repro,
2007-03-25,-0.90, 1.34, 10.13, 1.87, 1.59, 7.14, repro,
2007-03-26,-0.73, 0.79, 4.22, 1.86, 1.58, 7.05, repro,
2007-03-27,0.34, 1.06, 2.78, 1.93, 1.65, 7.41, repro,
2007-03-28,-1.28, 1.50, 0.23, 1.93, 1.66, 7.43, repro,
2007-03-29,-0.65, 1.86, -0.25, 1.90, 1.64, 7.38, repro,
2007-03-30,-0.42, 1.79, -0.49, 1.87, 1.59, 7.13, repro,
2007-03-31,-0.66, 1.26, 7.11, 1.88, 1.59, 7.12, repro,
2007-04-01,-1.19, 2.03, 5.07, 1.88, 1.64, 7.29, repro,
2007-04-02,-0.50, 2.07, 11.65, 1.86, 1.60, 7.16, repro,
2007-04-03,-0.30, 1.23, -1.35, 1.91, 1.68, 7.53, repro,
2007-04-04,-0.66, 1.53, -0.62, 1.93, 1.70, 7.50, repro,
2007-04-05,-1.63, 1.49, 0.28, 1.96, 1.74, 7.63, repro,
2007-04-06,-2.39, 0.04, -2.46, 1.98, 1.78, 7.78, repro,
2007-04-07,-1.44, 0.43, 1.43, 1.90, 1.64, 7.24, repro,
2007-04-08,-3.12, 0.89, 3.37, 1.86, 1.60, 7.12, repro,
2007-04-09,-0.56, 0.60, 4.72, 1.88, 1.59, 7.15, repro,
2007-04-10,-2.15, 1.42, 0.56, 1.92, 1.64, 7.35, repro,
2007-04-11,-2.03, 0.25, 8.65, 1.90, 1.63, 7.20, repro,
2007-04-12,-1.40, 0.46, 10.25, 1.86, 1.59, 7.10, repro,
2007-04-13,-1.58, 1.82, 2.13, 1.86, 1.60, 7.14, repro,
2007-04-14,-1.03, 1.99, 12.94, 1.90, 1.62, 7.25, repro,
2007-04-15,-2.66, 1.50, 6.46, 1.89, 1.61, 7.27, repro,
2007-04-16,-0.93, 1.31, -0.96, 1.87, 1.59, 7.13, repro,
2007-04-17,-0.93, 1.35, 5.05, 1.87, 1.60, 7.15, repro,
2007-04-18,-1.96, 1.22, 5.29, 1.86, 1.59, 7.13, repro,
2007-04-19,-1.63, 0.62, 5.57, 1.87, 1.60, 7.15, repro,
2007-04-20,0.09, 1.54, 0.98, 1.89, 1.61, 7.24, repro,
2007-04-21,-0.35, 0.72, -0.71, 1.89, 1.58, 7.16, repro,
2007-04-22,0.93, 1.93, 2.80, 1.89, 1.60, 7.20, repro,
2007-04-23,-1.08, 0.90, 1.71, 1.89, 1.61, 7.19, repro,
2007-04-24,0.58, 1.29, -5.27, 1.90, 1.63, 7.30, repro,
2007-04-25,-1.34, 0.61, -0.79, 1.90, 1.62, 7.26, repro,
2007-04-26,-0.73, 1.18, 1.60, 1.89, 1.59, 7.17, repro,
2007-04-27,-0.16, 0.40, 2.05, 1.89, 1.59, 7.18, repro,
2007-04-28,0.22, 0.50, 2.32, 1.88, 1.59, 7.18, repro,
2007-04-29,-0.96, 0.54, -0.48, 1.87, 1.59, 7.16, repro,
2007-04-30,-0.13, 0.61, -1.50, 1.86, 1.58, 7.12, repro,
2007-05-01,-1.39, 0.37, 0.26, 1.88, 1.58, 7.14, repro,
2007-05-02,-3.19, 1.85, 2.01, 1.96, 1.59, 7.46, repro,
2007-05-03,-0.70, 1.57, 2.68, 2.01, 1.64, 7.62, repro,
2007-05-04,-0.74, 1.34, -0.08, 1.88, 1.58, 7.17, repro,
2007-05-05,-2.35, 1.18, 2.35, 1.91, 1.63, 7.27, repro,
2007-05-06,-0.67, 0.18, 2.95, 1.88, 1.58, 7.15, repro,
2007-05-07,-0.23, 0.87, 3.71, 1.90, 1.58, 7.24, repro,
2007-05-08,-0.10, 0.80, 3.97, 1.92, 1.59, 7.27, repro,
2007-05-09,0.20, 0.84, -0.02, 1.90, 1.59, 7.22, repro,
2007-05-10,0.93, 1.02, -3.62, 2.02, 1.68, 7.67, repro,
2007-05-11,-0.66, 1.36, -3.26, 2.01, 1.68, 7.71, repro,
2007-05-12,-1.75, 0.81, 0.63, 1.89, 1.58, 7.19, repro,
2007-05-13,-0.77, 0.88, 6.37, 1.95, 1.62, 7.33, repro,
2007-05-14,-0.08, 1.37, -5.12, 1.95, 1.61, 7.29, repro,
2007-05-15,-0.46, 0.77, 1.83, 1.89, 1.59, 7.15, repro,
2007-05-16,-1.47, 0.82, -2.09, 1.89, 1.59, 7.16, repro,
2007-05-17,-1.85, 1.09, 1.97, 1.92, 1.62, 7.30, repro,
2007-05-18,-1.62, 0.97, -0.34, 1.99, 1.69, 7.55, repro,
2007-05-19,-1.24, 1.23, -4.06, 1.95, 1.62, 7.32, repro,
2007-05-20,-1.09, 0.63, 0.33, 2.00, 1.70, 7.51, repro,
2007-05-21,-0.97, 0.25, 1.89, 1.97, 1.69, 7.53, repro,
2007-05-22,0.39, 0.27, -2.88, 1.92, 1.62, 7.28, repro,
2007-05-23,0.81, 1.19, 3.20, 2.01, 1.72, 7.62, repro,
2007-05-24,-0.75, 0.47, 3.29, 2.10, 1.79, 8.03, repro,
2007-05-25,-0.84, 1.46, 0.96, 1.96, 1.63, 7.33, repro,
2007-05-26,-0.24, 1.19, 0.26, 1.93, 1.62, 7.27, repro,
2007-05-27,-1.43, 0.25, 2.63, 1.97, 1.66, 7.41, repro,
2007-05-28,-0.80, 0.67, 2.84, 1.93, 1.62, 7.26, repro,
2007-05-29,-1.10, 0.37, 3.18, 1.93, 1.61, 7.23, repro,
2007-05-30,-0.70, -0.21, -0.07, 1.96, 1.59, 7.27, repro,
2007-05-31,-0.90, 0.94, 1.17, 2.00, 1.66, 7.45, repro,
2007-06-01,-1.26, 0.76, 4.52, 1.91, 1.58, 7.16, repro,
2007-06-02,-1.22, 0.32, 6.20, 1.89, 1.59, 7.15, repro,
2007-06-03,-1.05, 1.51, 6.81, 1.89, 1.59, 7.18, repro,
2007-06-04,-1.66, 1.30, 7.47, 1.90, 1.59, 7.19, repro,
2007-06-05,-1.41, 0.19, 3.42, 1.94, 1.60, 7.31, repro,
2007-06-06,-1.62, 2.43, 9.18, 1.90, 1.59, 7.19, repro,
2007-06-07,-1.40, 1.60, 8.13, 1.88, 1.58, 7.14, repro,
2007-06-08,-0.18, 1.01, 3.35, 1.91, 1.61, 7.27, repro,
2007-06-09,-0.98, 1.32, 0.32, 1.91, 1.63, 7.28, repro,
2007-06-10,-1.20, -0.11, 4.64, 1.90, 1.59, 7.19, repro,
2007-06-11,0.47, 1.46, 8.24, 1.97, 1.76, 7.57, repro,
2007-06-12,-0.08, 0.98, 0.62, 1.93, 1.67, 7.29, repro,
2007-06-13,-0.31, 1.18, -3.43, 1.95, 1.65, 7.33, repro,
2007-06-14,-0.54, 1.07, -1.47, 1.94, 1.64, 7.31, repro,
2007-06-15,-0.28, 0.93, 2.06, 1.89, 1.59, 7.19, repro,
2007-06-16,-0.56, 0.37, -0.71, 1.89, 1.58, 7.16, repro,
2007-06-17,-1.22, 1.28, 0.60, 1.88, 1.58, 7.14, repro,
2007-06-18,-0.35, 2.13, 3.23, 1.89, 1.59, 7.17, repro,
2007-06-19,0.08, 1.94, -4.18, 1.89, 1.59, 7.19, repro,
2007-06-20,-0.78, 1.82, -7.60, 1.88, 1.59, 7.17, repro,
2007-06-21,-1.10, 1.58, 1.42, 1.88, 1.58, 7.16, repro,
2007-06-22,-1.47, 0.93, 1.31, 1.89, 1.59, 7.20, repro,
2007-06-23,-1.63, 0.86, 0.09, 1.88, 1.58, 7.17, repro,
2007-06-24,-1.59, 1.09, 0.11, 1.91, 1.64, 7.38, repro,
2007-06-25,-1.45, 1.37, -0.29, 1.89, 1.59, 7.21, repro,
2007-06-26,-0.70, 1.03, -6.80, 1.89, 1.58, 7.16, repro,
2007-06-27,-0.22, 1.28, -5.76, 1.89, 1.58, 7.19, repro,
2007-06-28,-0.84, 1.06, -2.90, 1.91, 1.60, 7.27, repro,
2007-06-29,-0.63, 1.10, 1.21, 1.88, 1.59, 7.19, repro,
2007-06-30,-1.04, 0.60, -3.33, 1.89, 1.59, 7.23, repro,
2007-07-01,0.52, 0.55, 5.15, 1.89, 1.59, 7.21, repro,
2007-07-02,-0.96, 1.93, -0.46, 1.89, 1.58, 7.19, repro,
2007-07-03,-1.75, 2.20, -3.28, 1.90, 1.60, 7.28, repro,
2007-07-04,-1.22, 2.20, -3.89, 1.88, 1.58, 7.17, repro,
2007-07-05,-0.63, 1.30, -0.88, 1.88, 1.59, 7.21, repro,
2007-07-06,0.02, 1.27, 0.16, 1.89, 1.60, 7.25, repro,
2007-07-07,-1.40, 0.93, -0.79, 1.88, 1.58, 7.18, repro,
2007-07-08,-1.02, 0.28, 6.47, 1.90, 1.59, 7.24, repro,
2007-07-09,-0.34, 1.38, 1.54, 1.92, 1.66, 7.40, repro,
2007-07-10,-0.22, 1.11, -1.28, 1.91, 1.63, 7.37, repro,
2007-07-11,-1.20, 1.63, -0.74, 1.89, 1.59, 7.18, repro,
2007-07-12,-0.23, 1.25, -2.10, 1.92, 1.65, 7.37, repro,
2007-07-13,-2.30, 0.76, -2.58, 1.92, 1.66, 7.37, repro,
2007-07-14,-1.04, 2.82, 0.57, 1.93, 1.65, 7.30, repro,
2007-07-15,-0.78, 0.57, 5.13, 1.91, 1.66, 7.36, repro,
2007-07-16,-0.32, 2.05, 0.36, 1.91, 1.66, 7.37, repro,
2007-07-17,-2.99, 2.39, 2.63, 1.97, 1.70, 7.49, repro,
2007-07-18,-1.31, 0.33, -1.01, 1.93, 1.66, 7.44, repro,
2007-07-19,-0.55, 1.99, 1.97, 1.90, 1.59, 7.20, repro,
2007-07-20,0.44, 0.53, 2.46, 1.97, 1.67, 7.52, repro,
2007-07-21,-0.48, 2.26, -0.24, 1.96, 1.69, 7.54, repro,
2007-07-22,-0.02, 2.17, 2.38, 1.96, 1.68, 7.57, repro,
2007-07-23,-1.39, 2.18, 7.34, 2.00, 1.70, 7.67, repro,
2007-07-24,-0.33, 0.78, 13.32, 1.94, 1.66, 7.46, repro,
2007-07-25,0.00, 1.16, 9.03, 1.95, 1.66, 7.49, repro,
2007-07-26,-1.51, 1.68, 5.83, 1.90, 1.60, 7.22, repro,
2007-07-27,-0.91, 2.47, 3.97, 1.92, 1.67, 7.42, repro,
2007-07-28,-0.04, 0.82, 2.32, 1.93, 1.67, 7.45, repro,
2007-07-29,-1.04, 1.80, 2.89, 1.93, 1.67, 7.45, repro,
2007-07-30,-0.75, 0.98, 4.07, 1.94, 1.67, 7.48, repro,
2007-07-31,-0.79, 1.40, 0.81, 1.93, 1.67, 7.44, repro,
2007-08-01,0.10, 1.95, 3.36, 1.89, 1.60, 7.20, repro,
2007-08-02,-1.18, 1.77, 4.63, 1.87, 1.60, 7.13, repro,
2007-08-03,-0.61, 1.82, 3.03, 1.88, 1.60, 7.17, repro,
2007-08-04,0.12, 1.22, 2.04, 1.93, 1.60, 7.30, repro,
2007-08-05,0.25, 0.89, 2.81, 1.94, 1.61, 7.37, repro,
2007-08-06,-0.59, 1.08, 3.69, 1.91, 1.64, 7.40, repro,
2007-08-07,-1.16, 2.16, -1.55, 1.90, 1.64, 7.32, repro,
2007-08-08,-1.51, 1.71, 6.40, 1.88, 1.59, 7.14, repro,
2007-08-09,-1.42, 1.14, 6.24, 1.88, 1.59, 7.18, repro,
2007-08-10,0.19, 1.45, 7.20, 1.89, 1.59, 7.18, repro,
2007-08-11,-0.84, 2.23, 3.88, 1.90, 1.59, 7.20, repro,
2007-08-12,-0.83, 1.81, -0.76, 1.89, 1.60, 7.20, repro,
2007-08-13,0.19, 1.72, -1.64, 1.88, 1.59, 7.15, repro,
2007-08-14,0.14, 1.28, 1.95, 1.98, 1.70, 7.49, repro,
2007-08-15,-0.46, 2.16, 0.62, 2.00, 1.71, 7.58, repro,
2007-08-16,-1.11, 1.32, 4.56, 1.96, 1.65, 7.49, repro,
2007-08-17,0.56, 0.79, -2.31, 1.99, 1.66, 7.59, repro,
2007-08-18,-0.77, 1.95, -4.07, 1.98, 1.69, 7.71, repro,
2007-08-19,0.56, 0.86, 3.56, 2.03, 1.70, 7.84, repro,
2007-08-20,-0.39, 0.83, 0.96, 1.96, 1.64, 7.48, repro,
2007-08-21,-0.65, 1.48, 2.48, 2.00, 1.65, 7.57, repro,
2007-08-22,-0.13, 1.00, 2.37, 1.98, 1.65, 7.51, repro,
2007-08-23,0.30, 1.42, 3.45, 1.94, 1.61, 7.35, repro,
2007-08-24,-0.01, 1.77, 3.26, 2.02, 1.69, 7.68, repro,
2007-08-25,1.38, 1.53, -1.87, 1.97, 1.67, 7.58, repro,
2007-08-26,0.88, 1.95, 1.91, 2.00, 1.71, 7.66, repro,
2007-08-27,-0.77, 0.86, 0.99, 2.00, 1.72, 7.72, repro,
2007-08-28,-0.63, 1.11, 4.73, 1.98, 1.67, 7.55, repro,
2007-08-29,0.12, 1.12, 1.75, 1.97, 1.68, 7.54, repro,
2007-08-30,0.92, 1.86, -2.44, 2.03, 1.74, 7.75, repro,
2007-08-31,-1.26, 0.82, -0.51, 1.97, 1.68, 7.57, repro,
2007-09-01,-0.24, 0.45, -0.03, 1.98, 1.68, 7.57, repro,
2007-09-02,0.28, 0.76, 6.77, 1.98, 1.68, 7.57, repro,
2007-09-03,-0.26, 0.36, 3.94, 1.97, 1.68, 7.57, repro,
2007-09-04,0.36, -0.09, 5.19, 1.97, 1.68, 7.53, repro,
2007-09-05,-0.64, 0.77, 3.31, 1.97, 1.68, 7.59, repro,
2007-09-06,-0.71, -0.01, 3.49, 1.98, 1.68, 7.57, repro,
2007-09-07,0.31, 0.23, 7.41, 2.01, 1.73, 7.77, repro,
2007-09-08,-1.53, 0.50, 2.36, 2.08, 1.84, 8.06, repro,
2007-09-09,-0.57, 0.55, 5.35, 2.05, 1.77, 7.97, repro,
2007-09-10,-1.58, 0.48, 6.30, 2.03, 1.73, 7.81, repro,
2007-09-11,-1.47, 0.65, -0.85, 2.02, 1.71, 7.76, repro,
2007-09-12,-0.85, 0.19, 0.33, 2.05, 1.72, 7.81, repro,
2007-09-13,-4.29, 0.56, 1.63, 2.09, 1.72, 7.92, repro,
2007-09-14,-0.58, 0.66, 2.34, 2.03, 1.73, 7.76, repro,
2007-09-15,0.49, -0.43, 10.01, 2.16, 1.70, 8.16, repro,
2007-09-16,-1.53, -0.02, 3.98, 2.06, 1.69, 7.80, repro,
2007-09-17,-1.84, -0.40, 6.48, 2.05, 1.77, 7.93, repro,
2007-09-18,-0.89, -0.24, 2.99, 2.03, 1.72, 7.73, repro,
2007-09-19,-1.68, -0.33, 1.93, 1.91, 1.60, 7.20, repro,
2007-09-20,-0.34, 0.86, 7.39, 1.94, 1.64, 7.44, repro,
2007-09-21,-0.48, 0.96, 6.16, 2.02, 1.68, 7.72, repro,
2007-09-22,0.01, 0.17, 8.54, 1.98, 1.65, 7.53, repro,
2007-09-23,-1.18, -0.19, 5.35, 2.00, 1.70, 7.69, repro,
2007-09-24,-2.09, 1.45, 3.13, 2.03, 1.68, 7.72, repro,
2007-09-25,-2.12, 0.61, 1.24, 1.97, 1.64, 7.53, repro,
2007-09-26,-0.81, 0.57, 7.19, 1.98, 1.65, 7.52, repro,
2007-09-27,-1.37, 0.26, 3.28, 1.97, 1.64, 7.57, repro,
2007-09-28,-1.36, -0.65, 4.73, 2.03, 1.77, 7.81, repro,
2007-09-29,-3.06, -0.57, 8.51, 1.96, 1.70, 7.58, repro,
2007-09-30,-2.02, 0.19, 4.64, 2.02, 1.72, 7.79, repro,
2007-10-01,-2.55, -0.35, 7.20, 2.02, 1.75, 7.74, repro,
2007-10-02,-2.01, -0.10, 9.61, 2.00, 1.76, 7.83, repro,
2007-10-03,0.26, 0.97, 8.99, 2.20, 1.86, 8.58, repro,
2007-10-04,-1.36, 0.34, 8.04, 2.16, 1.74, 8.28, repro,
2007-10-05,-2.96, 0.16, 10.43, 1.99, 1.75, 7.85, repro,
2007-10-06,-2.88, 0.32, 7.16, 2.02, 1.73, 7.83, repro,
2007-10-07,-1.84, 0.64, 6.64, 2.00, 1.71, 7.69, repro,
2007-10-08,-1.56, 0.51, 8.81, 2.16, 1.80, 8.54, repro,
2007-10-09,-2.40, 0.11, 6.87, 2.14, 1.93, 8.53, repro,
2007-10-10,-3.41, 2.07, -3.07, 2.13, 1.80, 8.23, repro,
2007-10-11,-3.02, 1.07, 6.15, 1.96, 1.71, 7.65, repro,
2007-10-12,-2.00, 0.30, 8.96, 1.93, 1.66, 7.54, repro,
2007-10-13,-1.79, -0.12, 12.03, 1.94, 1.72, 7.60, repro,
2007-10-14,-1.43, 0.30, 6.11, 1.94, 1.68, 7.57, repro,
2007-10-15,-2.75, 0.35, 11.26, 1.90, 1.63, 7.38, repro,
2007-10-16,-3.93, -0.11, 10.60, 1.91, 1.64, 7.39, repro,
2007-10-17,-2.15, 1.32, 11.19, 2.05, 1.70, 8.02, repro,
2007-10-18,-0.72, 1.48, 11.64, 1.92, 1.64, 7.39, repro,
2007-10-19,-1.92, 1.10, 10.27, 1.91, 1.64, 7.37, repro,
2007-10-20,-3.86, -0.21, 4.65, 1.95, 1.68, 7.60, repro,
2007-10-21,-1.96, 1.09, 5.86, 1.92, 1.64, 7.45, repro,
2007-10-22,-1.80, 0.55, 5.45, 1.96, 1.69, 7.63, repro,
2007-10-23,-1.73, 1.34, 3.73, 1.99, 1.75, 7.82, repro,
2007-10-24,-1.55, 1.29, 6.25, 1.97, 1.74, 7.73, repro,
2007-10-25,-2.25, 0.90, 2.46, 1.95, 1.68, 7.60, repro,
2007-10-26,-2.75, 1.04, 0.65, 1.96, 1.70, 7.59, repro,
2007-10-27,-1.00, 0.60, -4.82, 1.95, 1.71, 7.61, repro,
2007-10-28,-1.62, 1.19, -0.69, 1.93, 1.66, 7.48, repro,
2007-10-29,-1.82, 1.87, 3.60, 1.92, 1.65, 7.44, repro,
2007-10-30,-2.26, 0.35, 5.74, 1.90, 1.64, 7.36, repro,
2007-10-31,-2.37, 1.06, 3.13, 1.92, 1.65, 7.46, repro,
2007-11-01,-1.80, 1.24, 1.79, 1.89, 1.61, 7.26, repro,
2007-11-02,-1.57, 0.68, 2.48, 1.90, 1.61, 7.28, repro,
2007-11-03,-1.76, 1.64, 3.27, 1.89, 1.61, 7.24, repro,
2007-11-04,-1.49, 0.72, 5.48, 1.88, 1.60, 7.17, repro,
2007-11-05,-1.95, 1.16, -1.21, 1.89, 1.60, 7.20, repro,
2007-11-06,-1.87, 0.95, -2.95, 2.07, 1.81, 8.05, repro,
2007-11-07,-1.50, 0.76, -0.59, 1.89, 1.61, 7.28, repro,
2007-11-08,-2.32, 0.64, -0.07, 1.91, 1.65, 7.37, repro,
2007-11-09,-1.65, 0.37, -0.35, 1.90, 1.65, 7.34, repro,
2007-11-10,-1.49, -0.06, 0.66, 1.88, 1.61, 7.21, repro,
2007-11-11,-2.05, 0.87, -2.51, 1.88, 1.61, 7.21, repro,
2007-11-12,-3.27, 1.59, 0.04, 1.88, 1.61, 7.25, repro,
2007-11-13,1.42, 0.60, -5.13, 1.89, 1.61, 7.29, repro,
2007-11-14,-1.60, 1.53, -5.99, 1.92, 1.63, 7.36, repro,
2007-11-15,-0.46, 0.78, -1.97, 1.91, 1.62, 7.33, repro,
2007-11-16,0.04, -0.91, 0.83, 1.91, 1.63, 7.33, repro,
2007-11-17,-1.56, 0.50, -0.60, 1.88, 1.61, 7.24, repro,
2007-11-18,-1.82, -0.31, 0.47, 1.92, 1.63, 7.37, repro,
2007-11-19,-1.17, 0.68, -0.33, 1.96, 1.73, 7.63, repro,
2007-11-20,-2.46, 0.82, -8.04, 2.02, 1.73, 7.68, repro,
2007-11-21,-2.54, 0.53, -6.96, 2.04, 1.82, 7.90, repro,
2007-11-22,-0.56, -0.19, -7.07, 1.94, 1.67, 7.35, repro,
2007-11-23,-0.21, 0.33, -6.31, 2.04, 1.81, 7.91, repro,
2007-11-24,-0.32, 0.25, -2.12, 1.96, 1.72, 7.50, repro,
2007-11-25,-0.61, -0.16, 1.07, 2.07, 1.81, 7.83, repro,
2007-11-26,-0.29, 0.30, -1.07, 2.03, 1.83, 7.90, repro,
2007-11-27,0.09, -0.09, -1.72, 2.03, 1.76, 7.76, repro,
2007-11-28,0.04, 0.87, -4.36, 2.02, 1.75, 7.66, repro,
2007-11-29,-0.86, -0.17, -3.64, 2.05, 1.78, 7.88, repro,
2007-11-30,-0.59, 0.37, -0.73, 2.08, 1.79, 7.85, repro,
2007-12-01,-1.48, -0.07, 1.96, 2.13, 1.90, 8.06, repro,
2007-12-02,-0.00, 1.17, -3.78, 2.11, 1.85, 8.14, repro,
2007-12-03,-0.48, 0.88, -4.97, 2.19, 1.98, 8.58, repro,
2007-12-04,0.56, 2.73, -0.08, 2.26, 2.18, 8.71, repro,
2007-12-05,-1.33, 2.47, 2.03, 2.14, 1.99, 8.58, repro,
2007-12-06,0.16, 0.42, 3.62, 2.17, 1.99, 8.62, repro,
2007-12-07,-1.17, -0.51, 6.43, 2.19, 2.08, 8.67, repro,
2007-12-08,-2.54, 0.35, 4.48, 2.09, 1.89, 7.98, repro,
2007-12-09,0.58, 1.19, -5.32, 2.32, 2.27, 9.17, repro,
2007-12-10,-0.44, 1.08, -1.15, 2.07, 1.83, 7.88, repro,
2007-12-11,-1.10, 0.09, -5.38, 2.15, 1.99, 8.45, repro,
2007-12-12,0.99, -0.15, -5.25, 2.15, 1.84, 8.27, repro,
2007-12-13,0.84, -0.35, -7.20, 1.99, 1.70, 7.72, repro,
2007-12-14,0.63, 0.91, -0.54, 1.94, 1.65, 7.53, repro,
2007-12-15,-0.32, 0.99, -2.86, 1.98, 1.70, 7.66, repro,
2007-12-16,-1.08, 0.56, -2.93, 1.94, 1.65, 7.52, repro,
2007-12-17,-0.40, 0.61, -1.21, 2.02, 1.70, 7.67, repro,
2007-12-18,1.67, 0.28, 0.20, 1.98, 1.69, 7.66, repro,
2007-12-19,-0.50, -0.74, -2.92, 2.08, 1.76, 8.03, repro,
2007-12-20,0.36, 0.62, 4.00, 2.00, 1.75, 7.75, repro,
2007-12-21,-0.70, 1.90, 2.53, 2.11, 1.81, 8.00, repro,
2007-12-22,0.35, 1.04, -4.65, 2.11, 1.85, 8.22, repro,
2007-12-23,0.32, 1.55, -1.36, 2.07, 1.77, 8.00, repro,
2007-12-24,-0.62, 1.53, -1.31, 1.97, 1.68, 7.61, repro,
2007-12-25,-0.04, 1.15, 1.27, 2.05, 1.78, 7.73, repro,
2007-12-26,-0.42, 1.15, 3.05, 1.97, 1.67, 7.49, repro,
2007-12-27,-0.13, -0.20, 8.56, 2.00, 1.71, 7.72, repro,
2007-12-28,-0.41, 0.70, 2.77, 2.02, 1.71, 7.74, repro,
2007-12-29,0.10, 0.65, -0.13, 2.01, 1.71, 7.76, repro,
2007-12-30,-1.40, 1.12, -2.59, 2.00, 1.71, 7.66, repro,
2007-12-31,0.22, 1.21, -2.81, 1.94, 1.62, 7.36, repro,
2008-01-01,-0.13, 0.75, -4.85, 1.95, 1.62, 7.42, repro,
2008-01-02,-0.32, 0.46, -3.72, 1.94, 1.61, 7.36, repro,
2008-01-03,-1.54, 0.88, 0.72, 1.96, 1.65, 7.55, repro,
2008-01-04,0.68, -0.49, -0.52, 1.95, 1.64, 7.45, repro,
2008-01-05,0.47, 0.48, 3.13, 1.90, 1.58, 7.26, repro,
2008-01-06,0.37, -0.32, -0.24, 1.93, 1.59, 7.37, repro,
2008-01-07,-1.18, 1.48, 3.90, 1.93, 1.60, 7.40, repro,
2008-01-08,-0.56, 1.74, 0.07, 1.97, 1.62, 7.62, repro,
2008-01-09,-0.53, 1.43, -0.98, 1.97, 1.61, 7.62, repro,
2008-01-10,0.44, 1.99, 0.95, 1.90, 1.60, 7.36, repro,
2008-01-11,-0.43, 2.17, -2.04, 1.91, 1.60, 7.38, repro,
2008-01-12,0.53, 1.22, -1.01, 1.91, 1.59, 7.32, repro,
2008-01-13,-1.61, 0.12, -9.56, 1.90, 1.60, 7.33, repro,
2008-01-14,0.01, 1.11, -1.23, 1.91, 1.61, 7.37, repro,
2008-01-15,0.15, 1.73, -2.27, 1.89, 1.60, 7.28, repro,
2008-01-16,-1.39, 1.40, -3.63, 1.93, 1.62, 7.43, repro,
2008-01-17,-0.23, 1.15, -0.18, 1.94, 1.61, 7.40, repro,
2008-01-18,-0.40, 1.12, -3.28, 1.92, 1.63, 7.39, repro,
2008-01-19,-0.51, 1.76, -6.36, 1.89, 1.61, 7.31, repro,
2008-01-20,-0.92, 1.61, -3.26, 1.89, 1.60, 7.33, repro,
2008-01-21,-0.41, 1.57, -0.72, 1.89, 1.60, 7.27, repro,
2008-01-22,-0.03, 2.01, -9.28, 1.91, 1.62, 7.39, repro,
2008-01-23,0.58, 2.09, -8.66, 1.90, 1.60, 7.30, repro,
2008-01-24,-0.35, 1.66, 0.46, 1.90, 1.60, 7.33, repro,
2008-01-25,0.85, 1.16, -9.33, 1.91, 1.61, 7.37, repro,
2008-01-26,1.75, 2.66, -4.50, 1.89, 1.60, 7.30, repro,
2008-01-27,-0.00, 0.55, 6.55, 1.93, 1.66, 7.62, repro,
2008-01-28,0.04, 1.61, 0.86, 1.93, 1.61, 7.36, repro,
2008-01-29,0.05, 3.01, 3.06, 1.98, 1.72, 7.63, repro,
2008-01-30,-0.56, 3.08, 0.60, 2.00, 1.70, 7.73, repro,
2008-01-31,2.06, 1.92, -6.34, 1.88, 1.61, 7.27, repro,
2008-02-01,-0.12, 2.17, -5.19, 1.88, 1.60, 7.23, repro,
2008-02-02,0.65, 2.31, -5.40, 1.88, 1.61, 7.29, repro,
2008-02-03,-0.83, 2.54, -2.18, 1.89, 1.60, 7.31, repro,
2008-02-04,-0.03, 1.83, -1.64, 1.90, 1.61, 7.36, repro,
2008-02-05,1.35, 2.63, 0.13, 1.93, 1.69, 7.54, repro,
2008-02-06,1.20, 2.66, -3.15, 1.92, 1.67, 7.46, repro,
2008-02-07,2.15, 3.50, -5.41, 1.91, 1.64, 7.52, repro,
2008-02-08,1.04, 1.74, -0.10, 1.89, 1.59, 7.27, repro,
2008-02-09,0.87, 3.85, -1.87, 1.90, 1.60, 7.28, repro,
2008-02-10,1.01, 2.82, 0.90, 1.90, 1.60, 7.30, repro,
2008-02-11,-0.08, 2.26, 1.44, 1.89, 1.60, 7.27, repro,
2008-02-12,0.09, 3.11, 0.70, 1.89, 1.60, 7.28, repro,
2008-02-13,-0.14, 1.85, 0.48, 1.88, 1.60, 7.28, repro,
2008-02-14,-0.42, 2.61, -0.49, 1.89, 1.60, 7.27, repro,
2008-02-15,0.98, 1.94, -0.87, 1.92, 1.64, 7.34, repro,
2008-02-16,-0.26, 2.29, -0.46, 1.89, 1.61, 7.32, repro,
2008-02-17,-1.71, 2.57, -0.57, 1.88, 1.61, 7.30, repro,
2008-02-18,-1.20, 2.29, 0.12, 1.88, 1.60, 7.27, repro,
2008-02-19,-0.67, 1.89, 0.00, 1.89, 1.60, 7.28, repro,
2008-02-20,-0.11, 1.68, 0.59, 1.88, 1.59, 7.23, repro,
2008-02-21,-0.19, 1.58, 2.26, 1.90, 1.61, 7.33, repro,
2008-02-22,1.91, 1.79, -1.90, 1.89, 1.61, 7.33, repro,
2008-02-23,-0.06, 2.36, 2.45, 1.95, 1.67, 7.49, repro,
2008-02-24,0.58, 2.49, -6.69, 1.89, 1.62, 7.34, repro,
2008-02-25,-1.86, 2.17, -1.11, 1.89, 1.60, 7.27, repro,
2008-02-26,-0.02, 1.81, -6.77, 1.88, 1.60, 7.22, repro,
2008-02-27,-0.30, 2.09, -5.01, 1.92, 1.64, 7.45, repro,
2008-02-28,0.11, 0.53, -8.54, 1.95, 1.69, 7.68, repro,
2008-02-29,0.52, 1.86, -4.74, 1.92, 1.65, 7.47, repro,
2008-03-01,-0.16, 2.17, -0.12, 1.95, 1.68, 7.72, repro,
2008-03-02,-0.59, 1.05, -4.09, 1.98, 1.74, 7.94, repro,
2008-03-03,0.71, 2.25, -0.13, 1.89, 1.59, 7.26, repro,
2008-03-04,-0.07, 2.68, -3.99, 1.92, 1.64, 7.45, repro,
2008-03-05,-0.54, 1.72, -6.24, 1.96, 1.72, 7.72, repro,
2008-03-06,0.79, 2.09, -2.36, 1.92, 1.64, 7.53, repro,
2008-03-07,0.11, 1.83, -3.66, 1.89, 1.59, 7.28, repro,
2008-03-08,-1.02, 1.79, 0.71, 1.94, 1.68, 7.72, repro,
2008-03-09,-0.97, 0.83, -4.67, 1.93, 1.65, 7.57, repro,
2008-03-10,0.58, 2.14, -1.26, 1.89, 1.60, 7.28, repro,
2008-03-11,0.56, 2.09, -5.45, 1.89, 1.60, 7.28, repro,
2008-03-12,0.16, 1.16, -0.15, 1.93, 1.63, 7.52, repro,
2008-03-13,-0.99, 3.45, 1.38, 1.92, 1.63, 7.50, repro,
2008-03-14,-1.92, 2.81, -0.66, 1.92, 1.63, 7.48, repro,
2008-03-15,-2.86, 1.85, -0.55, 1.92, 1.64, 7.50, repro,
2008-03-16,-2.18, 0.85, 8.75, 1.94, 1.68, 7.62, repro,
2008-03-17,-0.30, 1.61, -3.46, 2.00, 1.77, 7.96, repro,
2008-03-18,0.86, 1.65, -1.86, 1.95, 1.67, 7.58, repro,
2008-03-19,-0.15, 1.15, 0.58, 1.93, 1.64, 7.48, repro,
2008-03-20,-0.30, 1.52, -3.61, 1.93, 1.64, 7.49, repro,
2008-03-21,0.47, 1.27, -7.95, 1.93, 1.64, 7.49, repro,
2008-03-22,-0.57, 1.55, -5.56, 1.95, 1.67, 7.61, repro,
2008-03-23,-0.59, 0.66, -6.32, 1.93, 1.63, 7.43, repro,
2008-03-24,0.15, 1.36, -0.59, 1.92, 1.62, 7.37, repro,
2008-03-25,-1.14, 1.43, -2.79, 1.95, 1.67, 7.52, repro,
2008-03-26,-0.26, 1.44, -1.46, 1.95, 1.68, 7.57, repro,
2008-03-27,-0.36, 0.69, -3.88, 1.95, 1.67, 7.53, repro,
2008-03-28,1.17, 0.49, 2.54, 1.93, 1.64, 7.40, repro,
2008-03-29,0.23, 0.62, -0.17, 1.92, 1.58, 7.32, repro,
2008-03-30,-1.22, 1.18, -0.57, 1.92, 1.59, 7.35, repro,
2008-03-31,0.24, 1.46, -0.59, 1.91, 1.59, 7.35, repro,
2008-04-01,-0.29, 1.10, -3.16, 1.91, 1.60, 7.36, repro,
2008-04-02,0.84, 1.58, -4.14, 1.96, 1.61, 7.57, repro,
2008-04-03,0.86, 0.70, -2.34, 1.91, 1.58, 7.31, repro,
2008-04-04,-0.24, 1.58, -3.55, 1.91, 1.59, 7.33, repro,
2008-04-05,0.05, 0.57, 5.49, 1.92, 1.58, 7.33, repro,
2008-04-06,0.09, 0.31, 3.07, 1.92, 1.60, 7.40, repro,
2008-04-07,-2.11, 0.57, 2.36, 1.92, 1.60, 7.39, repro,
2008-04-08,-2.26, 0.51, 2.57, 1.91, 1.59, 7.38, repro,
2008-04-09,-1.23, 2.35, 3.17, 1.92, 1.58, 7.37, repro,
2008-04-10,-0.47, 1.50, 1.38, 1.92, 1.58, 7.33, repro,
2008-04-11,1.07, 0.80, 2.17, 1.91, 1.59, 7.35, repro,
2008-04-12,0.83, 0.88, -2.13, 1.92, 1.60, 7.41, repro,
2008-04-13,0.30, 0.96, -2.70, 1.91, 1.59, 7.32, repro,
2008-04-14,-0.71, 0.09, -3.35, 1.92, 1.59, 7.40, repro,
2008-04-15,-1.00, -0.24, 6.35, 2.00, 1.70, 7.81, repro,
2008-04-16,0.25, 0.46, 2.69, 1.95, 1.64, 7.47, repro,
2008-04-17,1.14, 0.92, -0.64, 1.92, 1.60, 7.41, repro,
2008-04-18,0.27, 1.25, 0.47, 1.92, 1.59, 7.39, repro,
2008-04-19,-1.10, 1.03, 0.73, 1.91, 1.59, 7.37, repro,
2008-04-20,-2.31, 1.46, 0.26, 1.92, 1.59, 7.44, repro,
2008-04-21,-2.31, 1.60, -1.26, 1.93, 1.58, 7.40, repro,
2008-04-22,-2.17, 0.44, 2.84, 1.93, 1.58, 7.37, repro,
2008-04-23,-0.80, 1.11, 1.68, 1.99, 1.66, 7.67, repro,
2008-04-24,-1.47, 1.17, -4.45, 1.95, 1.63, 7.55, repro,
2008-04-25,0.19, 1.70, 0.55, 1.94, 1.59, 7.41, repro,
2008-04-26,-0.44, 0.45, -4.95, 2.04, 1.68, 7.80, repro,
2008-04-27,-0.66, 1.69, -3.02, 2.01, 1.61, 7.61, repro,
2008-04-28,-1.01, 0.19, 0.64, 2.02, 1.61, 7.65, repro,
2008-04-29,-2.09, 2.33, -2.93, 2.06, 1.63, 7.73, repro,
2008-04-30,-2.00, 1.81, -1.86, 2.10, 1.69, 7.89, repro,
2008-05-01,-0.05, 1.64, -1.52, 2.01, 1.65, 7.63, repro,
2008-05-02,-0.68, 1.42, 3.17, 2.03, 1.66, 7.70, repro,
2008-05-03,-1.06, 1.14, 3.39, 1.98, 1.61, 7.51, repro,
2008-05-04,-0.74, 1.36, 1.78, 1.95, 1.59, 7.45, repro,
2008-05-05,-0.87, 1.09, -3.79, 1.98, 1.62, 7.53, repro,
2008-05-06,-0.58, 0.75, -2.80, 2.04, 1.64, 7.89, repro,
2008-05-07,-0.01, 0.49, 4.77, 1.97, 1.61, 7.49, repro,
2008-05-08,0.63, 1.33, 1.08, 2.11, 1.69, 7.87, repro,
2008-05-09,-0.20, 1.36, 5.50, 2.04, 1.68, 7.73, repro,
2008-05-10,-0.69, 2.57, -0.33, 1.98, 1.62, 7.57, repro,
2008-05-11,0.57, 1.65, 2.84, 2.04, 1.64, 7.77, repro,
2008-05-12,-1.12, 0.70, 4.29, 1.99, 1.62, 7.58, repro,
2008-05-13,-0.61, 1.24, 3.11, 1.97, 1.61, 7.44, repro,
2008-05-14,0.15, 1.77, -5.19, 1.94, 1.58, 7.38, repro,
2008-05-15,0.55, 1.08, -0.89, 1.99, 1.63, 7.63, repro,
2008-05-16,0.08, 1.40, -0.76, 1.98, 1.62, 7.54, repro,
2008-05-17,0.27, 2.04, 2.24, 2.03, 1.68, 7.70, repro,
2008-05-18,-0.78, 1.87, 3.37, 2.03, 1.67, 7.73, repro,
2008-05-19,-0.95, 1.72, 0.88, 1.93, 1.59, 7.40, repro,
2008-05-20,-0.80, 1.36, 5.55, 1.97, 1.62, 7.56, repro,